Flag for Ireland Weather past 2 weeks in Waterford, Ireland

Now
54 °F

Fog.


Feels Like: 53 °F
Forecast: 51 / 62 °F
Wind: 3 mph from North

Location: Cork Airport

Current Time: Sep 22, 2014 at 1:16:38 AM

Latest Report: Sep 22, 2014 at 12:30 AM


Visibility: 0 mi

Pressure: 30.33 "Hg

Humidity: 100%

Dew point: 54 °F

Location of WaterfordLocation

Historic Weather in Waterford — Graph

°F

Waterford temperature yesterday

Maximum temperature yesterday: 63 °F (at 4:00 PM)
Minimum temperature yesterday: 46 °F (at 8:30 AM)
Average temperature yesterday: 54 °F

Past Weeks' High & Low Weather Summary

 TemperatureHumidityPressure
High68 °F (Sep 17, 3:00 PM)100% (Sep 9, 7:00 AM)30.36 "Hg (Sep 9, 7:00 AM)
Low46 °F (Sep 7, 4:00 AM)55% (Sep 7, 2:30 PM)29.77 "Hg (Sep 18, 3:00 AM)
Average58 °F87%30.07 "Hg
* Reported Midnight between Sep 6 and Sep 7 — Midnight between Sep 21 and Sep 22, Waterford, Weather by CustomWeather, © 2014

Note: Actual official high and low records may vary slightly from our data, if they occured in-between our weather recording intervals... More about our weather records

Advertising

Waterford weather history for previous 24 hours

 ConditionsComfort  
Time TempWeatherWind HumidityBarometerVisibility
12:00 AM
Sep 22
54 °FFog.5 mph100%30.36 "Hg0 mi
11:30 PM
Sep 21
54 °FFog.5 mph100%30.33 "Hg1 mi
11:00 PM54 °FPassing clouds.3 mph100%30.33 "HgN/A
10:30 PM54 °FPassing clouds.5 mph100%30.33 "HgN/A
10:00 PM54 °FPassing clouds.5 mph94%30.33 "HgN/A
9:30 PM54 °FPassing clouds.5 mph94%30.33 "HgN/A
9:00 PM54 °FPassing clouds.6 mph94%30.33 "HgN/A
8:30 PM54 °FScattered clouds.6 mph94%30.33 "HgN/A
8:00 PM54 °FScattered clouds.7 mph94%30.30 "HgN/A
7:30 PM55 °FScattered clouds.6 mph94%30.30 "HgN/A
7:00 PM57 °FPassing clouds.8 mph88%30.30 "HgN/A
6:30 PM59 °FPassing clouds.8 mph82%30.30 "HgN/A
6:00 PM61 °FPassing clouds.7 mph77%30.30 "HgN/A
5:30 PM61 °FPassing clouds.7 mph77%30.30 "HgN/A
5:00 PM63 °FScattered clouds.8 mph73%30.30 "HgN/A
4:30 PM63 °FScattered clouds.7 mph73%30.30 "HgN/A
4:00 PM63 °FScattered clouds.6 mph77%30.30 "HgN/A
3:30 PM61 °FPartly sunny.8 mph72%30.30 "HgN/A
3:00 PM61 °FScattered clouds.5 mph72%30.30 "HgN/A
2:30 PM61 °FScattered clouds.6 mph72%30.30 "HgN/A
2:00 PM59 °FScattered clouds.6 mph77%30.30 "HgN/A
1:30 PM59 °FScattered clouds.7 mph77%30.30 "HgN/A
1:00 PM59 °FScattered clouds.6 mph77%30.33 "HgN/A
12:30 PM59 °FScattered clouds.6 mph77%30.30 "HgN/A
12:00 PM57 °FPartly sunny.6 mph82%30.30 "HgN/A
11:30 AM55 °FPartly sunny.2 mph82%30.30 "HgN/A
11:00 AM52 °FPartly sunny.5 mph94%30.30 "HgN/A
10:30 AM52 °FScattered clouds.7 mph88%30.30 "HgN/A
10:00 AM50 °FPartly sunny.7 mph94%30.30 "Hg4 mi
9:30 AM50 °FPassing clouds.6 mph88%30.30 "Hg5 mi
9:00 AM48 °FPassing clouds.7 mph94%30.27 "Hg5 mi
8:30 AM46 °FPassing clouds.9 mph93%30.27 "HgN/A
8:00 AM48 °FPassing clouds.9 mph87%30.27 "HgN/A
7:30 AM48 °FPassing clouds.8 mph94%30.27 "HgN/A
7:00 AM48 °FPassing clouds.8 mph87%30.27 "HgN/A
6:30 AM48 °FPassing clouds.9 mph87%30.27 "HgN/A
6:00 AM48 °FPassing clouds.9 mph94%30.27 "HgN/A
5:30 AM48 °FPassing clouds.9 mph94%30.24 "HgN/A
5:00 AM48 °FPassing clouds.9 mph94%30.24 "HgN/A
4:30 AM50 °FPassing clouds.10 mph88%30.24 "HgN/A
4:00 AM48 °FPassing clouds.10 mph94%30.24 "HgN/A
3:30 AM48 °FPassing clouds.9 mph94%30.24 "HgN/A
3:00 AM50 °FPassing clouds.9 mph88%30.24 "HgN/A
2:30 AM50 °FPassing clouds.10 mph88%30.24 "HgN/A
2:00 AM52 °FPassing clouds.9 mph82%30.27 "HgN/A
1:30 AM52 °FPassing clouds.9 mph88%30.24 "HgN/A
1:00 AM52 °FPassing clouds.10 mph88%30.24 "HgN/A
Weather by CustomWeather, © 2014

See weather overviewHow to use our weather pages